Location: ???????
(55.4362°N, 38.1183°E)
Time: 13:36:05
(UTC+00:00)

Cosmos 2219 Rocket - Pass Details

Date: 30 October 2021
Orbit: 826 x 848 km, 71.0° (Epoch: 01 December)

Event Time Altitude Azimuth Distance (km) Brightness Sun altitude
Exits shadow 00:06:30 19° 115° (ESE) 1,926 4.3 -36.4°
Drops below altitude 10° 00:08:03 10° 121° (ESE) 2,468 4.8 -36.2°
Sets 00:10:35 0° 127° (SE) 3,402 5.6 -35.9°
